Year,Month,Day,Hour,Minute,Value (Times are PST for temperature in C)
2012,08,09,00,00,12.30
2012,08,09,00,01,12.30
2012,08,09,00,02,12.30
2012,08,09,00,03,12.30
2012,08,09,00,04,12.40
2012,08,09,00,05,12.40
2012,08,09,00,06,12.40
2012,08,09,00,07,12.40
2012,08,09,00,08,12.40
2012,08,09,00,09,12.40
2012,08,09,00,10,12.40
2012,08,09,00,11,12.40
2012,08,09,00,12,12.40
2012,08,09,00,13,12.40
2012,08,09,00,14,12.40
2012,08,09,00,15,12.40
2012,08,09,00,16,12.40
2012,08,09,00,17,12.40
2012,08,09,00,18,12.50
2012,08,09,00,19,12.60
2012,08,09,00,20,12.60
2012,08,09,00,21,12.60
2012,08,09,00,22,12.60
2012,08,09,00,23,12.60
2012,08,09,00,24,12.60
2012,08,09,00,25,12.60
2012,08,09,00,26,12.60
2012,08,09,00,27,12.60
2012,08,09,00,28,12.60
2012,08,09,00,29,12.60
2012,08,09,00,30,12.60
2012,08,09,00,31,12.60
2012,08,09,00,32,12.60
2012,08,09,00,33,12.60
2012,08,09,00,34,12.60
2012,08,09,00,35,12.60
2012,08,09,00,36,12.60
2012,08,09,00,37,12.60
2012,08,09,00,38,12.60
2012,08,09,00,39,12.60
2012,08,09,00,40,12.60
2012,08,09,00,41,12.60
2012,08,09,00,42,12.60
2012,08,09,00,43,12.50
2012,08,09,00,44,12.50
2012,08,09,00,45,12.50
2012,08,09,00,46,12.50
2012,08,09,00,47,12.40
2012,08,09,00,48,12.40
2012,08,09,00,49,12.40
2012,08,09,00,50,12.40
2012,08,09,00,51,12.40
2012,08,09,00,52,12.40
2012,08,09,00,53,12.30
2012,08,09,00,54,12.30
2012,08,09,00,55,12.30
2012,08,09,00,56,12.30
2012,08,09,00,57,12.30
2012,08,09,00,58,12.30
2012,08,09,00,59,12.30
2012,08,09,01,00,12.30
2012,08,09,01,01,12.20
2012,08,09,01,02,12.20
2012,08,09,01,03,12.20
2012,08,09,01,04,12.20
2012,08,09,01,05,12.20
2012,08,09,01,06,12.20
2012,08,09,01,07,12.20
2012,08,09,01,08,12.20
2012,08,09,01,09,12.20
2012,08,09,01,10,12.10
2012,08,09,01,11,12.10
2012,08,09,01,12,12.10
2012,08,09,01,13,12.10
2012,08,09,01,14,12.10
2012,08,09,01,15,12.10
2012,08,09,01,16,12.00
2012,08,09,01,17,12.00
2012,08,09,01,18,12.00
2012,08,09,01,19,12.00
2012,08,09,01,20,12.00
2012,08,09,01,21,11.90
2012,08,09,01,22,11.90
2012,08,09,01,23,11.90
2012,08,09,01,24,11.90
2012,08,09,01,25,11.90
2012,08,09,01,26,11.90
2012,08,09,01,27,11.90
2012,08,09,01,28,11.80
2012,08,09,01,29,11.80
2012,08,09,01,30,11.80
2012,08,09,01,31,11.80
2012,08,09,01,32,11.80
2012,08,09,01,33,11.80
2012,08,09,01,34,11.80
2012,08,09,01,35,11.80
2012,08,09,01,36,11.80
2012,08,09,01,37,11.70
2012,08,09,01,38,11.70
2012,08,09,01,39,11.70
2012,08,09,01,40,11.70
2012,08,09,01,41,11.70
2012,08,09,01,42,11.70
2012,08,09,01,43,11.70
2012,08,09,01,44,11.60
2012,08,09,01,45,11.60
2012,08,09,01,46,11.60
2012,08,09,01,47,11.60
2012,08,09,01,48,11.60
2012,08,09,01,49,11.60
2012,08,09,01,50,11.60
2012,08,09,01,51,11.60
2012,08,09,01,52,11.60
2012,08,09,01,53,11.50
2012,08,09,01,54,11.50
2012,08,09,01,55,11.50
2012,08,09,01,56,11.50
2012,08,09,01,57,11.40
2012,08,09,01,58,11.40
2012,08,09,01,59,11.40
2012,08,09,02,00,11.40
2012,08,09,02,01,11.40
2012,08,09,02,02,11.40
2012,08,09,02,03,11.40
2012,08,09,02,04,11.40
2012,08,09,02,05,11.40
2012,08,09,02,06,11.40
2012,08,09,02,07,11.40
2012,08,09,02,08,11.40
2012,08,09,02,09,11.30
2012,08,09,02,10,11.30
2012,08,09,02,11,11.30
2012,08,09,02,12,11.30
2012,08,09,02,13,11.30
2012,08,09,02,14,11.30
2012,08,09,02,15,11.30
2012,08,09,02,16,11.30
2012,08,09,02,17,11.20
2012,08,09,02,18,11.20
2012,08,09,02,19,11.20
2012,08,09,02,20,11.20
2012,08,09,02,21,11.20
2012,08,09,02,22,11.10
2012,08,09,02,23,11.10
2012,08,09,02,24,11.10
2012,08,09,02,25,11.10
2012,08,09,02,26,11.10
2012,08,09,02,27,11.10
2012,08,09,02,28,11.00
2012,08,09,02,29,11.00
2012,08,09,02,30,11.00
2012,08,09,02,31,10.90
2012,08,09,02,32,10.90
2012,08,09,02,33,10.90
2012,08,09,02,34,10.90
2012,08,09,02,35,10.90
2012,08,09,02,36,10.90
2012,08,09,02,37,10.80
2012,08,09,02,38,10.80
2012,08,09,02,39,10.80
2012,08,09,02,40,10.80
2012,08,09,02,41,10.80
2012,08,09,02,42,10.80
2012,08,09,02,43,10.80
2012,08,09,02,44,10.70
2012,08,09,02,45,10.70
2012,08,09,02,46,10.70
2012,08,09,02,47,10.70
2012,08,09,02,48,10.70
2012,08,09,02,49,10.70
2012,08,09,02,50,10.70
2012,08,09,02,51,10.70
2012,08,09,02,52,10.70
2012,08,09,02,53,10.70
2012,08,09,02,54,10.70
2012,08,09,02,55,10.70
2012,08,09,02,56,10.70
2012,08,09,02,57,10.70
2012,08,09,02,58,10.60
2012,08,09,02,59,10.60
2012,08,09,03,00,10.60
2012,08,09,03,01,10.60
2012,08,09,03,02,10.60
2012,08,09,03,03,10.60
2012,08,09,03,04,10.60
2012,08,09,03,05,10.60
2012,08,09,03,06,10.60
2012,08,09,03,07,10.60
2012,08,09,03,08,10.50
2012,08,09,03,09,10.50
2012,08,09,03,10,10.50
2012,08,09,03,11,10.50
2012,08,09,03,12,10.50
2012,08,09,03,13,10.50
2012,08,09,03,14,10.50
2012,08,09,03,15,10.50
2012,08,09,03,16,10.50
2012,08,09,03,17,10.50
2012,08,09,03,18,10.50
2012,08,09,03,19,10.50
2012,08,09,03,20,10.50
2012,08,09,03,21,10.50
2012,08,09,03,22,10.50
2012,08,09,03,23,10.50
2012,08,09,03,24,10.50
2012,08,09,03,25,10.40
2012,08,09,03,26,10.40
2012,08,09,03,27,10.40
2012,08,09,03,28,10.40
2012,08,09,03,29,10.40
2012,08,09,03,30,10.40
2012,08,09,03,31,10.40
2012,08,09,03,32,10.40
2012,08,09,03,33,10.40
2012,08,09,03,34,10.40
2012,08,09,03,35,10.40
2012,08,09,03,36,10.40
2012,08,09,03,37,10.40
2012,08,09,03,38,10.40
2012,08,09,03,39,10.40
2012,08,09,03,40,10.40
2012,08,09,03,41,10.40
2012,08,09,03,42,10.40
2012,08,09,03,43,10.30
2012,08,09,03,44,10.30
2012,08,09,03,45,10.30
2012,08,09,03,46,10.30
2012,08,09,03,47,10.30
2012,08,09,03,48,10.30
2012,08,09,03,49,10.30
2012,08,09,03,50,10.30
2012,08,09,03,51,10.30
2012,08,09,03,52,10.30
2012,08,09,03,53,10.30
2012,08,09,03,54,10.30
2012,08,09,03,55,10.30
2012,08,09,03,56,10.20
2012,08,09,03,57,10.20
2012,08,09,03,58,10.20
2012,08,09,03,59,10.20
2012,08,09,04,00,10.20
2012,08,09,04,01,10.20
2012,08,09,04,02,10.20
2012,08,09,04,03,10.20
2012,08,09,04,04,10.10
2012,08,09,04,05,10.10
2012,08,09,04,06,10.10
2012,08,09,04,07,10.10
2012,08,09,04,08,10.10
2012,08,09,04,09,10.10
2012,08,09,04,10,10.10
2012,08,09,04,11,10.10
2012,08,09,04,12,10.00
2012,08,09,04,13,10.00
2012,08,09,04,14,10.00
2012,08,09,04,15,10.00
2012,08,09,04,16,10.00
2012,08,09,04,17,10.00
2012,08,09,04,18,10.00
2012,08,09,04,19,10.00
2012,08,09,04,20,9.90
2012,08,09,04,21,9.90
2012,08,09,04,22,9.90
2012,08,09,04,23,9.90
2012,08,09,04,24,9.90
2012,08,09,04,25,9.90
2012,08,09,04,26,9.90
2012,08,09,04,27,9.90
2012,08,09,04,28,9.90
2012,08,09,04,29,9.90
2012,08,09,04,30,9.90
2012,08,09,04,31,9.90
2012,08,09,04,32,9.90
2012,08,09,04,33,9.90
2012,08,09,04,34,9.80
2012,08,09,04,35,9.80
2012,08,09,04,36,9.80
2012,08,09,04,37,9.80
2012,08,09,04,38,9.80
2012,08,09,04,39,9.80
2012,08,09,04,40,9.80
2012,08,09,04,41,9.80
2012,08,09,04,42,9.80
2012,08,09,04,43,9.80
2012,08,09,04,44,9.80
2012,08,09,04,45,9.80
2012,08,09,04,46,9.70
2012,08,09,04,47,9.70
2012,08,09,04,48,9.70
2012,08,09,04,49,9.70
2012,08,09,04,50,9.70
2012,08,09,04,51,9.70
2012,08,09,04,52,9.70
2012,08,09,04,53,9.70
2012,08,09,04,54,9.70
2012,08,09,04,55,9.70
2012,08,09,04,56,9.70
2012,08,09,04,57,9.70
2012,08,09,04,58,9.70
2012,08,09,04,59,9.60
2012,08,09,05,00,9.60
2012,08,09,05,01,9.60
2012,08,09,05,02,9.60
2012,08,09,05,03,9.60
2012,08,09,05,04,9.60
2012,08,09,05,05,9.60
2012,08,09,05,06,9.60
2012,08,09,05,07,9.60
2012,08,09,05,08,9.60
2012,08,09,05,09,9.60
2012,08,09,05,10,9.60
2012,08,09,05,11,9.60
2012,08,09,05,12,9.60
2012,08,09,05,13,9.60
2012,08,09,05,14,9.60
2012,08,09,05,15,9.60
2012,08,09,05,16,9.60
2012,08,09,05,17,9.60
2012,08,09,05,18,9.60
2012,08,09,05,19,9.60
2012,08,09,05,20,9.60
2012,08,09,05,21,9.60
2012,08,09,05,22,9.60
2012,08,09,05,23,9.50
2012,08,09,05,24,9.50
2012,08,09,05,25,9.50
2012,08,09,05,26,9.50
2012,08,09,05,27,9.50
2012,08,09,05,28,9.50
2012,08,09,05,29,9.50
2012,08,09,05,30,9.50
2012,08,09,05,31,9.50
2012,08,09,05,32,9.50
2012,08,09,05,33,9.50
2012,08,09,05,34,9.50
2012,08,09,05,35,9.40
2012,08,09,05,36,9.40
2012,08,09,05,37,9.40
2012,08,09,05,38,9.40
2012,08,09,05,39,9.40
2012,08,09,05,40,9.40
2012,08,09,05,41,9.40
2012,08,09,05,42,9.40
2012,08,09,05,43,9.40
2012,08,09,05,44,9.40
2012,08,09,05,45,9.40
2012,08,09,05,46,9.40
2012,08,09,05,47,9.40
2012,08,09,05,48,9.40
2012,08,09,05,49,9.40
2012,08,09,05,50,9.30
2012,08,09,05,51,9.30
2012,08,09,05,52,9.30
2012,08,09,05,53,9.40
2012,08,09,05,54,9.40
2012,08,09,05,55,9.40
2012,08,09,05,56,9.40
2012,08,09,05,57,9.30
2012,08,09,05,58,9.30
2012,08,09,05,59,9.30
2012,08,09,06,00,9.30
2012,08,09,06,01,9.30
2012,08,09,06,02,9.30
2012,08,09,06,03,9.30
2012,08,09,06,04,9.30
2012,08,09,06,05,9.30
2012,08,09,06,06,9.30
2012,08,09,06,07,9.30
2012,08,09,06,08,9.30
2012,08,09,06,09,9.30
2012,08,09,06,10,9.30
2012,08,09,06,11,9.30
2012,08,09,06,12,9.30
2012,08,09,06,13,9.30
2012,08,09,06,14,9.30
2012,08,09,06,15,9.30
2012,08,09,06,16,9.30
2012,08,09,06,17,9.30
2012,08,09,06,18,9.30
2012,08,09,06,19,9.30
2012,08,09,06,20,9.30
2012,08,09,06,21,9.30
2012,08,09,06,22,9.30
2012,08,09,06,23,9.30
2012,08,09,06,24,9.30
2012,08,09,06,25,9.30
2012,08,09,06,26,9.30
2012,08,09,06,27,9.30
2012,08,09,06,28,9.30
2012,08,09,06,29,9.30
2012,08,09,06,30,9.30
2012,08,09,06,31,9.30
2012,08,09,06,32,9.30
2012,08,09,06,33,9.30
2012,08,09,06,34,9.30
2012,08,09,06,35,9.30
2012,08,09,06,36,9.30
2012,08,09,06,37,9.30
2012,08,09,06,38,9.30
2012,08,09,06,39,9.30
2012,08,09,06,40,9.30
2012,08,09,06,41,9.30
2012,08,09,06,42,9.30
2012,08,09,06,43,9.30
2012,08,09,06,44,9.30
2012,08,09,06,45,9.30
2012,08,09,06,46,9.40
2012,08,09,06,47,9.40
2012,08,09,06,48,9.40
2012,08,09,06,49,9.40
2012,08,09,06,50,9.40
2012,08,09,06,51,9.40
2012,08,09,06,52,9.40
2012,08,09,06,53,9.40
2012,08,09,06,54,9.40
2012,08,09,06,55,9.40
2012,08,09,06,56,9.40
2012,08,09,06,57,9.40
2012,08,09,06,58,9.50
2012,08,09,06,59,9.50
2012,08,09,07,00,9.50
2012,08,09,07,01,9.50
2012,08,09,07,02,9.50
2012,08,09,07,03,9.50
2012,08,09,07,04,9.60
2012,08,09,07,05,9.60
2012,08,09,07,06,9.60
2012,08,09,07,07,9.60
2012,08,09,07,08,9.60
2012,08,09,07,09,9.60
2012,08,09,07,10,9.60
2012,08,09,07,11,9.60
2012,08,09,07,12,9.70
2012,08,09,07,13,9.70
2012,08,09,07,14,9.70
2012,08,09,07,15,9.70
2012,08,09,07,16,9.70
2012,08,09,07,17,9.70
2012,08,09,07,18,9.70
2012,08,09,07,19,9.70
2012,08,09,07,20,9.70
2012,08,09,07,21,9.80
2012,08,09,07,22,9.80
2012,08,09,07,23,9.80
2012,08,09,07,24,9.80
2012,08,09,07,25,9.80
2012,08,09,07,26,9.80
2012,08,09,07,27,9.90
2012,08,09,07,28,9.90
2012,08,09,07,29,9.90
2012,08,09,07,30,9.90
2012,08,09,07,31,10.00
2012,08,09,07,32,10.00
2012,08,09,07,33,10.10
2012,08,09,07,34,10.10
2012,08,09,07,35,10.20
2012,08,09,07,36,10.20
2012,08,09,07,37,10.20
2012,08,09,07,38,10.30
2012,08,09,07,39,10.30
2012,08,09,07,40,10.40
2012,08,09,07,41,10.40
2012,08,09,07,42,10.40
2012,08,09,07,43,10.50
2012,08,09,07,44,10.60
2012,08,09,07,45,10.60
2012,08,09,07,46,10.70
2012,08,09,07,47,10.80
2012,08,09,07,48,10.80
2012,08,09,07,49,10.90
2012,08,09,07,50,11.00
2012,08,09,07,51,11.10
2012,08,09,07,52,11.20
2012,08,09,07,53,11.30
2012,08,09,07,54,11.40
2012,08,09,07,55,11.60
2012,08,09,07,56,11.70
2012,08,09,07,57,11.80
2012,08,09,07,58,11.90
2012,08,09,07,59,12.00
2012,08,09,08,00,12.10
2012,08,09,08,01,12.20
2012,08,09,08,02,12.40
2012,08,09,08,03,12.50
2012,08,09,08,04,12.60
2012,08,09,08,05,12.80
2012,08,09,08,06,12.90
2012,08,09,08,07,13.10
2012,08,09,08,08,13.30
2012,08,09,08,09,13.40
2012,08,09,08,10,13.50
2012,08,09,08,11,13.70
2012,08,09,08,12,13.90
2012,08,09,08,13,14.00
2012,08,09,08,14,14.20
2012,08,09,08,15,14.30
2012,08,09,08,16,14.50
2012,08,09,08,17,14.70
2012,08,09,08,18,14.80
2012,08,09,08,19,15.00
2012,08,09,08,20,15.00
2012,08,09,08,21,15.10
2012,08,09,08,22,15.20
2012,08,09,08,23,15.40
2012,08,09,08,24,15.50
2012,08,09,08,25,15.60
2012,08,09,08,26,15.80
2012,08,09,08,27,15.90
2012,08,09,08,28,16.00
2012,08,09,08,29,16.10
2012,08,09,08,30,16.20
2012,08,09,08,31,16.30
2012,08,09,08,32,16.40
2012,08,09,08,33,16.50
2012,08,09,08,34,16.60
2012,08,09,08,35,16.70
2012,08,09,08,36,16.80
2012,08,09,08,37,16.90
2012,08,09,08,38,17.10
2012,08,09,08,39,17.20
2012,08,09,08,40,17.30
2012,08,09,08,41,17.40
2012,08,09,08,42,17.50
2012,08,09,08,43,17.60
2012,08,09,08,44,17.60
2012,08,09,08,45,17.70
2012,08,09,08,46,17.70
2012,08,09,08,47,17.70
2012,08,09,08,48,17.80
2012,08,09,08,49,17.80
2012,08,09,08,50,17.80
2012,08,09,08,51,17.80
2012,08,09,08,52,17.80
2012,08,09,08,53,17.90
2012,08,09,08,54,17.90
2012,08,09,08,55,17.90
2012,08,09,08,56,17.90
2012,08,09,08,57,18.00
2012,08,09,08,58,18.00
2012,08,09,08,59,18.00
2012,08,09,09,00,18.10
2012,08,09,09,01,18.10
2012,08,09,09,02,18.20
2012,08,09,09,03,18.20
2012,08,09,09,04,18.20
2012,08,09,09,05,18.20
2012,08,09,09,06,18.20
2012,08,09,09,07,18.30
2012,08,09,09,08,18.40
2012,08,09,09,09,18.40
2012,08,09,09,10,18.30
2012,08,09,09,11,18.30
2012,08,09,09,12,18.20
2012,08,09,09,13,18.10
2012,08,09,09,14,18.10
2012,08,09,09,15,18.10
2012,08,09,09,16,18.00
2012,08,09,09,17,18.00
2012,08,09,09,18,18.10
2012,08,09,09,19,18.10
2012,08,09,09,20,18.20
2012,08,09,09,21,18.20
2012,08,09,09,22,18.20
2012,08,09,09,23,18.20
2012,08,09,09,24,18.30
2012,08,09,09,25,18.30
2012,08,09,09,26,18.30
2012,08,09,09,27,18.30
2012,08,09,09,28,18.30
2012,08,09,09,29,18.30
2012,08,09,09,30,18.30
2012,08,09,09,31,18.40
2012,08,09,09,32,18.40
2012,08,09,09,33,18.50
2012,08,09,09,34,18.60
2012,08,09,09,35,18.70
2012,08,09,09,36,18.80
2012,08,09,09,37,18.80
2012,08,09,09,38,18.90
2012,08,09,09,39,19.00
2012,08,09,09,40,19.10
2012,08,09,09,41,19.20
2012,08,09,09,42,19.30
2012,08,09,09,43,19.30
2012,08,09,09,44,19.30
2012,08,09,09,45,19.30
2012,08,09,09,46,19.30
2012,08,09,09,47,19.30
2012,08,09,09,48,19.30
2012,08,09,09,49,19.30
2012,08,09,09,50,19.30
2012,08,09,09,51,19.20
2012,08,09,09,52,19.10
2012,08,09,09,53,19.10
2012,08,09,09,54,19.00
2012,08,09,09,55,18.90
2012,08,09,09,56,18.80
2012,08,09,09,57,18.80
2012,08,09,09,58,18.70
2012,08,09,09,59,18.70
2012,08,09,10,00,18.60
2012,08,09,10,01,18.60
2012,08,09,10,02,18.60
2012,08,09,10,03,18.50
2012,08,09,10,04,18.60
2012,08,09,10,05,18.60
2012,08,09,10,06,18.60
2012,08,09,10,07,18.60
2012,08,09,10,08,18.70
2012,08,09,10,09,18.70
2012,08,09,10,10,18.70
2012,08,09,10,11,18.80
2012,08,09,10,12,18.80
2012,08,09,10,13,18.80
2012,08,09,10,14,18.90
2012,08,09,10,15,18.90
2012,08,09,10,16,18.90
2012,08,09,10,17,18.90
2012,08,09,10,18,18.90
2012,08,09,10,19,18.90
2012,08,09,10,20,18.90
2012,08,09,10,21,19.00
2012,08,09,10,22,19.00
2012,08,09,10,23,19.10
2012,08,09,10,24,19.10
2012,08,09,10,25,19.10
2012,08,09,10,26,19.20
2012,08,09,10,27,19.20
2012,08,09,10,28,19.20
2012,08,09,10,29,19.20
2012,08,09,10,30,19.20
2012,08,09,10,31,19.20
2012,08,09,10,32,19.30
2012,08,09,10,33,19.30
2012,08,09,10,34,19.30
2012,08,09,10,35,19.40
2012,08,09,10,36,19.40
2012,08,09,10,37,19.40
2012,08,09,10,38,19.40
2012,08,09,10,39,19.40
2012,08,09,10,40,19.40
2012,08,09,10,41,19.50
2012,08,09,10,42,19.50
2012,08,09,10,43,19.60
2012,08,09,10,44,19.60
2012,08,09,10,45,19.60
2012,08,09,10,46,19.60
2012,08,09,10,47,19.60
2012,08,09,10,48,19.60
2012,08,09,10,49,19.70
2012,08,09,10,50,19.70
2012,08,09,10,51,19.80
2012,08,09,10,52,19.80
2012,08,09,10,53,19.80
2012,08,09,10,54,19.70
2012,08,09,10,55,19.70
2012,08,09,10,56,19.60
2012,08,09,10,57,19.60
2012,08,09,10,58,19.60
2012,08,09,10,59,19.60
2012,08,09,11,00,19.70
2012,08,09,11,01,19.70
2012,08,09,11,02,19.70
2012,08,09,11,03,19.70
2012,08,09,11,04,19.70
2012,08,09,11,05,19.60
2012,08,09,11,06,19.60
2012,08,09,11,07,19.60
2012,08,09,11,08,19.70
2012,08,09,11,09,19.70
2012,08,09,11,10,19.80
2012,08,09,11,11,19.80
2012,08,09,11,12,19.90
2012,08,09,11,13,19.90
2012,08,09,11,14,20.00
2012,08,09,11,15,20.00
2012,08,09,11,16,20.10
2012,08,09,11,17,20.10
2012,08,09,11,18,20.20
2012,08,09,11,19,20.30
2012,08,09,11,20,20.40
2012,08,09,11,21,20.50
2012,08,09,11,22,20.50
2012,08,09,11,23,20.50
2012,08,09,11,24,20.50
2012,08,09,11,25,20.50
2012,08,09,11,26,20.40
2012,08,09,11,27,20.30
2012,08,09,11,28,20.20
2012,08,09,11,29,20.20
2012,08,09,11,30,20.10
2012,08,09,11,31,20.10
2012,08,09,11,32,20.10
2012,08,09,11,33,20.00
2012,08,09,11,34,19.90
2012,08,09,11,35,19.90
2012,08,09,11,36,19.80
2012,08,09,11,37,19.70
2012,08,09,11,38,19.60
2012,08,09,11,39,19.50
2012,08,09,11,40,19.50
2012,08,09,11,41,19.40
2012,08,09,11,42,19.40
2012,08,09,11,43,19.40
2012,08,09,11,44,19.50
2012,08,09,11,45,19.50
2012,08,09,11,46,19.60
2012,08,09,11,47,19.60
2012,08,09,11,48,19.70
2012,08,09,11,49,19.70
2012,08,09,11,50,19.80
2012,08,09,11,51,19.80
2012,08,09,11,52,19.80
2012,08,09,11,53,19.80
2012,08,09,11,54,19.90
2012,08,09,11,55,20.00
2012,08,09,11,56,20.10
2012,08,09,11,57,20.20
2012,08,09,11,58,20.30
2012,08,09,11,59,20.40
2012,08,09,12,00,20.60
2012,08,09,12,01,20.70
2012,08,09,12,02,20.70
2012,08,09,12,03,20.80
2012,08,09,12,04,20.80
2012,08,09,12,05,20.80
2012,08,09,12,06,20.90
2012,08,09,12,07,20.90
2012,08,09,12,08,21.00
2012,08,09,12,09,21.00
2012,08,09,12,10,21.10
2012,08,09,12,11,21.10
2012,08,09,12,12,21.20
2012,08,09,12,13,21.30
2012,08,09,12,14,21.20
2012,08,09,12,15,21.20
2012,08,09,12,16,21.10
2012,08,09,12,17,21.00
2012,08,09,12,18,20.90
2012,08,09,12,19,20.90
2012,08,09,12,20,20.90
2012,08,09,12,21,20.90
2012,08,09,12,22,20.90
2012,08,09,12,23,20.90
2012,08,09,12,24,20.90
2012,08,09,12,25,20.90
2012,08,09,12,26,20.90
2012,08,09,12,27,20.80
2012,08,09,12,28,20.80
2012,08,09,12,29,20.80
2012,08,09,12,30,20.90
2012,08,09,12,31,20.90
2012,08,09,12,32,21.00
2012,08,09,12,33,21.00
2012,08,09,12,34,21.10
2012,08,09,12,35,21.00
2012,08,09,12,36,21.10
2012,08,09,12,37,21.10
2012,08,09,12,38,21.10
2012,08,09,12,39,21.10
2012,08,09,12,40,21.20
2012,08,09,12,41,21.30
2012,08,09,12,42,21.40
2012,08,09,12,43,21.50
2012,08,09,12,44,21.60
2012,08,09,12,45,21.70
2012,08,09,12,46,21.70
2012,08,09,12,47,21.60
2012,08,09,12,48,21.50
2012,08,09,12,49,21.40
2012,08,09,12,50,21.30
2012,08,09,12,51,21.20
2012,08,09,12,52,21.10
2012,08,09,12,53,21.00
2012,08,09,12,54,20.90
2012,08,09,12,55,20.80
2012,08,09,12,56,20.60
2012,08,09,12,57,20.40
2012,08,09,12,58,20.30
2012,08,09,12,59,20.30
2012,08,09,13,00,20.20
2012,08,09,13,01,20.20
2012,08,09,13,02,20.30
2012,08,09,13,03,20.40
2012,08,09,13,04,20.50
2012,08,09,13,05,20.50
2012,08,09,13,06,20.60
2012,08,09,13,07,20.80
2012,08,09,13,08,20.90
2012,08,09,13,09,21.00
2012,08,09,13,10,21.00
2012,08,09,13,11,21.10
2012,08,09,13,12,21.20
2012,08,09,13,13,21.20
2012,08,09,13,14,21.20
2012,08,09,13,15,21.20
2012,08,09,13,16,21.20
2012,08,09,13,17,21.20
2012,08,09,13,18,21.30
2012,08,09,13,19,21.30
2012,08,09,13,20,21.40
2012,08,09,13,21,21.50
2012,08,09,13,22,21.70
2012,08,09,13,23,21.80
2012,08,09,13,24,21.90
2012,08,09,13,25,21.90
2012,08,09,13,26,21.90
2012,08,09,13,27,22.00
2012,08,09,13,28,22.10
2012,08,09,13,29,22.00
2012,08,09,13,30,22.00
2012,08,09,13,31,22.00
2012,08,09,13,32,22.00
2012,08,09,13,33,21.90
2012,08,09,13,34,21.90
2012,08,09,13,35,21.90
2012,08,09,13,36,21.90
2012,08,09,13,37,21.80
2012,08,09,13,38,21.70
2012,08,09,13,39,21.70
2012,08,09,13,40,21.80
2012,08,09,13,41,21.80
2012,08,09,13,42,21.80
2012,08,09,13,43,21.80
2012,08,09,13,44,21.80
2012,08,09,13,45,21.90
2012,08,09,13,46,21.90
2012,08,09,13,47,22.00
2012,08,09,13,48,22.10
2012,08,09,13,49,22.10
2012,08,09,13,50,22.30
2012,08,09,13,51,22.50
2012,08,09,13,52,22.60
2012,08,09,13,53,22.80
2012,08,09,13,54,22.90
2012,08,09,13,55,23.00
2012,08,09,13,56,23.10
2012,08,09,13,57,23.20
2012,08,09,13,58,23.30
2012,08,09,13,59,23.30
2012,08,09,14,00,23.20
2012,08,09,14,01,22.90
2012,08,09,14,02,22.80
2012,08,09,14,03,22.80
2012,08,09,14,04,22.70
2012,08,09,14,05,22.60
2012,08,09,14,06,22.60
2012,08,09,14,07,22.50
2012,08,09,14,08,22.50
2012,08,09,14,09,22.50
2012,08,09,14,10,22.60
2012,08,09,14,11,22.60
2012,08,09,14,12,22.60
2012,08,09,14,13,22.60
2012,08,09,14,14,22.60
2012,08,09,14,15,22.50
2012,08,09,14,16,22.40
2012,08,09,14,17,22.40
2012,08,09,14,18,22.40
2012,08,09,14,19,22.30
2012,08,09,14,20,22.30
2012,08,09,14,21,22.30
2012,08,09,14,22,22.20
2012,08,09,14,23,22.20
2012,08,09,14,24,22.20
2012,08,09,14,25,22.40
2012,08,09,14,26,22.40
2012,08,09,14,27,22.50
2012,08,09,14,28,22.50
2012,08,09,14,29,22.60
2012,08,09,14,30,22.50
2012,08,09,14,31,22.40
2012,08,09,14,32,22.40
2012,08,09,14,33,22.40
2012,08,09,14,34,22.40
2012,08,09,14,35,22.50
2012,08,09,14,36,22.60
2012,08,09,14,37,22.60
2012,08,09,14,38,22.60
2012,08,09,14,39,22.70
2012,08,09,14,40,22.80
2012,08,09,14,41,22.80
2012,08,09,14,42,22.90
2012,08,09,14,43,23.00
2012,08,09,14,44,23.00
2012,08,09,14,45,22.90
2012,08,09,14,46,22.90
2012,08,09,14,47,22.70
2012,08,09,14,48,22.70
2012,08,09,14,49,22.70
2012,08,09,14,50,22.60
2012,08,09,14,51,22.40
2012,08,09,14,52,22.40
2012,08,09,14,53,22.40
2012,08,09,14,54,22.50
2012,08,09,14,55,22.60
2012,08,09,14,56,22.70
2012,08,09,14,57,22.70
2012,08,09,14,58,22.80
2012,08,09,14,59,22.80
2012,08,09,15,00,22.80
2012,08,09,15,01,22.80
2012,08,09,15,02,22.80
2012,08,09,15,03,22.80
2012,08,09,15,04,22.80
2012,08,09,15,05,22.80
2012,08,09,15,06,22.80
2012,08,09,15,07,22.90
2012,08,09,15,08,23.00
2012,08,09,15,09,23.10
2012,08,09,15,10,23.20
2012,08,09,15,11,23.20
2012,08,09,15,12,23.20
2012,08,09,15,13,23.20
2012,08,09,15,14,23.20
2012,08,09,15,15,23.30
2012,08,09,15,16,23.30
2012,08,09,15,17,23.30
2012,08,09,15,18,23.30
2012,08,09,15,19,23.30
2012,08,09,15,20,23.40
2012,08,09,15,21,23.40
2012,08,09,15,22,23.40
2012,08,09,15,23,23.30
2012,08,09,15,24,23.20
2012,08,09,15,25,23.20
2012,08,09,15,26,23.20
2012,08,09,15,27,23.20
2012,08,09,15,28,23.30
2012,08,09,15,29,23.30
2012,08,09,15,30,23.40
2012,08,09,15,31,23.30
2012,08,09,15,32,23.30
2012,08,09,15,33,23.30
2012,08,09,15,34,23.30
2012,08,09,15,35,23.30
2012,08,09,15,36,23.30
2012,08,09,15,37,23.40
2012,08,09,15,38,23.40
2012,08,09,15,39,23.40
2012,08,09,15,40,23.40
2012,08,09,15,41,23.40
2012,08,09,15,42,23.40
2012,08,09,15,43,23.30
2012,08,09,15,44,23.20
2012,08,09,15,45,23.10
2012,08,09,15,46,23.00
2012,08,09,15,47,22.90
2012,08,09,15,48,22.80
2012,08,09,15,49,22.80
2012,08,09,15,50,22.80
2012,08,09,15,51,22.70
2012,08,09,15,52,22.60
2012,08,09,15,53,22.60
2012,08,09,15,54,22.60
2012,08,09,15,55,22.60
2012,08,09,15,56,22.60
2012,08,09,15,57,22.70
2012,08,09,15,58,22.80
2012,08,09,15,59,22.80
2012,08,09,16,00,22.80
2012,08,09,16,01,22.80
2012,08,09,16,02,22.80
2012,08,09,16,03,22.80
2012,08,09,16,04,22.80
2012,08,09,16,05,22.80
2012,08,09,16,06,22.80
2012,08,09,16,07,22.70
2012,08,09,16,08,22.60
2012,08,09,16,09,22.60
2012,08,09,16,10,22.60
2012,08,09,16,11,22.50
2012,08,09,16,12,22.50
2012,08,09,16,13,22.40
2012,08,09,16,14,22.30
2012,08,09,16,15,22.30
2012,08,09,16,16,22.30
2012,08,09,16,17,22.30
2012,08,09,16,18,22.30
2012,08,09,16,19,22.30
2012,08,09,16,20,22.30
2012,08,09,16,21,22.30
2012,08,09,16,22,22.30
2012,08,09,16,23,22.30
2012,08,09,16,24,22.30
2012,08,09,16,25,22.30
2012,08,09,16,26,22.30
2012,08,09,16,27,22.20
2012,08,09,16,28,22.30
2012,08,09,16,29,22.30
2012,08,09,16,30,22.30
2012,08,09,16,31,22.30
2012,08,09,16,32,22.30
2012,08,09,16,33,22.30
2012,08,09,16,34,22.30
2012,08,09,16,35,22.30
2012,08,09,16,36,22.20
2012,08,09,16,37,22.10
2012,08,09,16,38,22.10
2012,08,09,16,39,22.00
2012,08,09,16,40,22.00
2012,08,09,16,41,22.00
2012,08,09,16,42,22.00
2012,08,09,16,43,21.90
2012,08,09,16,44,21.90
2012,08,09,16,45,21.90
2012,08,09,16,46,21.80
2012,08,09,16,47,21.80
2012,08,09,16,48,21.80
2012,08,09,16,49,21.80
2012,08,09,16,50,21.80
2012,08,09,16,51,21.80
2012,08,09,16,52,21.80
2012,08,09,16,53,21.80
2012,08,09,16,54,21.80
2012,08,09,16,55,21.80
2012,08,09,16,56,21.80
2012,08,09,16,57,21.80
2012,08,09,16,58,21.90
2012,08,09,16,59,21.90
2012,08,09,17,00,21.90
2012,08,09,17,01,21.90
2012,08,09,17,02,21.90
2012,08,09,17,03,21.90
2012,08,09,17,04,21.90
2012,08,09,17,05,21.80
2012,08,09,17,06,21.90
2012,08,09,17,07,21.90
2012,08,09,17,08,21.90
2012,08,09,17,09,21.90
2012,08,09,17,10,21.90
2012,08,09,17,11,21.90
2012,08,09,17,12,21.90
2012,08,09,17,13,21.80
2012,08,09,17,14,21.80
2012,08,09,17,15,21.80
2012,08,09,17,16,21.80
2012,08,09,17,17,21.80
2012,08,09,17,18,21.80
2012,08,09,17,19,21.80
2012,08,09,17,20,21.80
2012,08,09,17,21,21.90
2012,08,09,17,22,21.90
2012,08,09,17,23,21.90
2012,08,09,17,24,21.90
2012,08,09,17,25,21.90
2012,08,09,17,26,21.90
2012,08,09,17,27,21.90